Location: Buchberg
(46.9333°N, 15.8500°E)
Time: 08:59:27
(UTC+00:00)

IKONOS-2 - Pass Details

Date: 14 July 2020
Orbit: 600 x 611 km, 98.1° (Epoch: 07 August)

Event Time Altitude Azimuth Distance (km) Brightness Sun altitude
Exits shadow 00:48:09 29° 169° (S) 1,117 5.4 -17.4°
Maximum altitude 00:50:17 85° 255° (WSW) 612 4.4 -17.3°
Drops below altitude 10° 00:54:33 10° 345° (NNW) 1,956 7.8 -16.9°
Sets 00:56:44 0° 346° (NNW) 2,863 8.8 -16.8°
